STARLINK-11559, 62831

Orbit data source: Space-Track

STARLINK-11559, 62831 is a payload satellite owned by SpaceX/Seattle (US) in LEO that was launched on Mon, 27 Jan 2025 UTC via an FALCON 9 launch vehicle from the Air Force Eastern Test Range (AFETR). Payload-class satellites include a variety of spacecraft equipped with specific instruments for various scientific and technological missions. These include communications satellites like Starlink; space stations such as the ISS; scientific satellites like the Hubble; Earth observation satellites from companies like Planet Labs, Umbra, and HawkEye 360; GPS; miniature CubeSats for education and research; and military/defense satellites.

Loading next visibility...
Identifier
62831, 2025-019C
Orbit
LEO
Country
Flag of USUS
Related business
Manufacturer
SpaceX/Seattle
Mission
Operational Commercial Communications
Bus & Motor
STARLINK V2MD, Unknown motor
Mass
960 kg wet, ~910 kg dry
Launch date (UTC)
2025-01-27 (2 years ago)
Launch vehicle
FALCON 9
Launch site
Air Force Eastern Test Range (AFETR)
Object type
Payload
Rocket body
Debris
Shape & HBR
Box + 2 Pan, 18.1 m
Radar Cross Section
36.964 m², Large (>1 m²)

Expand to show TLE details & history
Last TLE update: 23 hours ago

TLE from 23 hours ago
0 STARLINK-11559
1 62831U 25019C   26247.21846660  .00177385  00000-0  13502-2 0  9995
2 62831  42.9987 310.3209 0001318 225.7820 134.2940 15.70953525 91957
Epoch: 2026-09-04T05:14Z
TLE epoch observation values (Epoch: 2026-09-04T05:14:35.514Z)
Latitude
0.00002°
Longitude
-111.67249°
Altitude
356.561 km
Speed
7.697 km/s
True Right ascension
20h 41m 17s
True Declination
0° 00' 00"
Sunlit
Object was in full shadow at epoch
Visualization orbit readout
Latitude
Unknown
Longitude
Unknown
Altitude
Unknown
Speed
Unknown
Apparent Right ascension
Unknown
Apparent Declination
Unknown
Sunlit
N/A
Visualization observer readout
Local Sidereal Time
19:48:01
Azimuth
Unknown
Elevation
Unknown
Doppler factor
Unknown
Orbital elements
Apogee altitude
359.04 km
Perigee altitude
357.265 km
Semi-major axis
6,736.29 km
Eccentricity
0.00013
Inclination
42.9987°
RAAN
310.3209°
Arg. of periapsis
225.782°
True anomaly
134.30481°
Mean anomaly
134.294°
Eccentric anomaly
134.2994°
Mean motion
3.92565 °/min
Orbital period
91.7 mins
BSTAR
0.0013502
Loading maneuver chart data...
Computing Atmospheric mass density...
Loading historical data...
Loading historical data...
Loading historical data...
Loading historical data...
Loading historical data...
Loading historical data...
Loading historical data...

Documentation

Showing up to 5 results
|